�������l�o���
Date,Time,MP-1(��Sv/h),MP-2(��Sv/h),MP-3(��Sv/h),MP-4(��Sv/h),MP-5(��Sv/h),MP-6(��Sv/h),MP-7(��Sv/h),MP-8(��Sv/h),����,����(m/s),���J
2013/08/08,00:00,2.7,4.8,5.5,4.9,5.2,2.8,3.2,3.2,���k��,4.0,��
2013/08/08,00:10,2.8,4.8,5.5,4.9,5.2,2.8,3.2,3.2,���k��,3.7,��
2013/08/08,00:20,2.8,4.8,5.5,4.9,5.2,2.8,3.2,3.2,�k��,3.1,��
2013/08/08,00:30,2.8,4.8,5.5,4.9,5.2,2.8,3.2,3.2,���k��,3.5,��
2013/08/08,00:40,2.8,4.8,5.5,4.9,5.2,2.8,3.2,3.2,�k��,2.5,��
2013/08/08,00:50,2.8,4.8,5.5,4.9,5.2,2.8,3.2,3.2,�k��,1.4,��
2013/08/08,01:00,2.8,4.8,5.5,4.9,5.2,2.8,3.2,3.2,�k��,2.7,��
2013/08/08,01:10,2.8,4.8,5.5,4.9,5.2,2.8,3.2,3.2,�k�k��,1.8,��
2013/08/08,01:20,2.8,4.8,5.5,4.9,5.2,2.8,3.2,3.2,���k��,3.3,��
2013/08/08,01:30,2.8,4.8,5.5,4.9,5.2,2.8,3.2,3.2,�k��,2.4,��
2013/08/08,01:40,2.8,4.8,5.5,4.9,5.2,2.8,3.2,3.2,�k��,2.6,��
2013/08/08,01:50,2.8,4.8,5.5,4.9,5.2,2.8,3.2,3.2,�k�k��,3.5,��
2013/08/08,02:00,2.8,4.8,5.5,4.9,5.2,2.8,3.2,3.2,�k�k��,3.8,��
2013/08/08,02:10,2.8,4.8,5.5,4.9,5.2,2.8,3.2,3.2,�k�k��,3.9,��
2013/08/08,02:20,2.8,4.8,5.5,4.9,5.2,2.8,3.2,3.2,�k�k��,4.3,��
2013/08/08,02:30,2.8,4.8,5.5,4.9,5.2,2.8,3.2,3.2,�k��,4.0,��
2013/08/08,02:40,2.8,4.8,5.5,4.9,5.2,2.8,3.2,3.2,�k��,4.3,��
2013/08/08,02:50,2.8,4.8,5.5,4.9,5.2,2.8,3.2,3.2,�k��,4.5,��
2013/08/08,03:00,2.8,4.8,5.5,4.9,5.2,2.8,3.2,3.2,�k��,4.3,��
2013/08/08,03:10,2.8,4.8,5.5,4.9,5.2,2.8,3.2,3.2,�k��,4.4,��
2013/08/08,03:20,2.8,4.8,5.5,4.9,5.2,2.8,3.2,3.2,�k�k��,4.3,��
2013/08/08,03:30,2.8,4.8,5.5,4.9,5.2,2.8,3.2,3.2,�k��,3.3,��
2013/08/08,03:40,2.8,4.8,5.5,4.9,5.2,2.8,3.2,3.2,�k��,3.6,��
2013/08/08,03:50,2.8,4.8,5.5,4.9,5.2,2.8,3.2,3.2,���k��,3.2,��
2013/08/08,04:00,2.8,4.8,5.5,4.9,5.2,2.8,3.2,3.2,�k�k��,2.8,��
2013/08/08,04:10,2.8,4.8,5.5,4.9,5.2,2.8,3.2,3.2,�k�k��,2.7,��
2013/08/08,04:20,2.8,4.8,5.5,4.9,5.2,2.8,3.2,3.2,�k�k��,3.2,��
2013/08/08,04:30,2.8,4.8,5.5,4.9,5.2,2.8,3.2,3.2,�k�k��,3.4,��
2013/08/08,04:40,2.8,4.8,5.5,4.9,5.2,2.8,3.2,3.2,�k�k��,3.3,��
2013/08/08,04:50,2.8,4.8,5.5,4.9,5.2,2.8,3.2,3.2,�k�k��,3.0,��
2013/08/08,05:00,2.8,4.8,5.5,4.9,5.2,2.8,3.2,3.2,�k�k��,3.3,��
2013/08/08,05:10,2.8,4.8,5.5,4.9,5.2,2.8,3.2,3.2,�k�k��,3.5,��
2013/08/08,05:20,2.8,4.8,5.5,4.9,5.2,2.8,3.2,3.2,�k�k��,3.9,��
2013/08/08,05:30,2.8,4.8,5.5,4.9,5.2,2.8,3.2,3.2,�k�k��,3.7,��
2013/08/08,05:40,2.8,4.8,5.5,4.9,5.2,2.8,3.2,3.2,�k�k��,3.7,��
2013/08/08,05:50,2.8,4.8,5.5,4.9,5.2,2.8,3.2,3.2,�k,3.3,��
2013/08/08,06:00,2.8,4.8,5.5,4.9,5.2,2.8,3.2,3.2,�k�k��,3.5,��
2013/08/08,06:10,2.8,4.8,5.5,4.9,5.2,2.8,3.2,3.2,�k�k��,3.1,��
2013/08/08,06:20,2.8,4.8,5.5,4.9,5.2,2.8,3.2,3.2,�k�k��,3.4,��
2013/08/08,06:30,2.8,4.8,5.5,4.9,5.2,2.8,3.2,3.2,�k�k��,2.9,��
2013/08/08,06:40,2.8,4.8,5.5,4.9,5.2,2.8,3.2,3.2,�k�k��,2.9,��
2013/08/08,06:50,2.8,4.8,5.5,4.9,5.2,2.8,3.2,3.2,�k�k��,2.6,��
2013/08/08,07:00,2.8,4.8,5.5,4.9,5.2,2.8,3.2,3.2,�k�k��,2.0,��
2013/08/08,07:10,2.8,4.8,5.5,4.9,5.2,2.8,3.2,3.2,�k�k��,1.9,��
2013/08/08,07:20,2.8,4.8,5.5,4.9,5.2,2.8,3.2,3.2,�k�k��,1.7,��
2013/08/08,07:30,2.8,4.8,5.5,4.9,5.2,2.8,3.2,3.2,�k�k��,1.5,��
2013/08/08,07:40,2.8,4.8,5.5,4.9,5.2,2.8,3.2,3.2,�k,1.4,��
2013/08/08,07:50,2.8,4.8,5.5,4.9,5.2,2.8,3.2,3.2,-,CALM,��
2013/08/08,08:00,2.8,4.8,5.5,4.9,5.2,2.8,3.2,3.2,-,CALM,��
2013/08/08,08:10,2.8,4.8,5.5,4.9,5.2,2.8,3.2,3.2,-,CALM,��
2013/08/08,08:20,2.8,4.8,5.5,4.9,5.2,2.8,3.2,3.2,�k�k��,0.7,��
2013/08/08,08:30,2.8,4.8,5.5,4.9,5.2,2.8,3.2,3.2,-,CALM,��
2013/08/08,08:40,2.8,4.8,5.5,4.9,-,2.8,3.2,3.2,�k��,0.9,��
2013/08/08,08:50,2.8,4.8,5.5,4.9,-,2.8,3.2,3.2,��,0.7,��
2013/08/08,09:00,2.8,4.8,5.5,4.9,-,2.8,3.2,3.2,��,1.3,��
2013/08/08,09:10,2.8,4.8,5.5,4.9,-,2.8,3.2,3.2,���쓌,1.3,��
2013/08/08,09:20,2.8,4.8,5.5,4.9,-,2.8,3.2,3.2,���쓌,0.5,��
2013/08/08,09:30,2.8,4.8,5.5,4.9,-,2.8,3.2,3.2,���쓌,1.6,��
2013/08/08,09:40,2.8,4.8,5.5,5.0,-,2.8,3.2,3.2,��,1.3,��
2013/08/08,09:50,2.8,4.8,5.5,5.0,-,2.8,3.2,3.2,��,1.2,��
2013/08/08,10:00,2.8,4.8,5.5,5.0,-,2.8,3.2,3.2,���쓌,1.4,��
2013/08/08,10:10,2.8,4.8,5.5,5.0,-,2.8,3.2,3.2,���쓌,1.2,��
2013/08/08,10:20,2.8,4.8,5.5,5.0,-,2.8,3.2,3.2,�쓌,1.1,��
2013/08/08,10:30,2.8,4.8,5.5,5.0,-,2.8,3.2,3.2,���쓌,2.0,��
2013/08/08,10:40,2.8,4.8,5.5,5.0,-,2.8,3.2,3.2,���쓌,1.6,��
2013/08/08,10:50,2.8,4.8,5.5,5.0,-,2.8,3.2,3.2,���쓌,2.2,��
2013/08/08,11:00,2.8,4.8,5.5,5.0,-,2.8,3.2,3.2,���쓌,2.4,��
2013/08/08,11:10,2.8,4.8,5.5,5.0,-,2.8,3.2,3.2,���쓌,2.5,��
2013/08/08,11:20,2.8,4.8,5.5,5.0,-,2.8,3.2,3.2,���쓌,2.2,��
2013/08/08,11:30,2.8,4.8,5.5,5.0,-,2.8,3.2,3.2,�쓌,2.5,��
2013/08/08,11:40,2.8,4.9,5.5,5.0,-,2.8,3.2,3.2,�쓌,2.5,��
2013/08/08,11:50,2.8,4.9,5.5,5.0,-,2.8,3.2,3.2,���쓌,1.9,��
2013/08/08,12:00,2.8,4.9,5.5,5.0,-,2.8,3.2,3.2,���쓌,2.4,��
2013/08/08,12:10,2.8,4.9,5.6,5.0,-,2.8,3.2,3.2,���쓌,2.3,��
2013/08/08,12:20,2.8,4.9,5.6,5.0,-,2.8,3.2,3.2,��,2.4,��
2013/08/08,12:30,2.8,4.9,5.6,5.0,-,2.8,3.2,3.2,��,2.1,��
2013/08/08,12:40,2.8,4.9,5.6,5.0,-,2.8,3.2,3.2,��,2.4,��
2013/08/08,12:50,2.8,4.9,5.6,5.0,-,2.8,3.2,3.2,��,2.2,��
2013/08/08,13:00,2.8,4.9,5.6,5.0,-,2.8,3.2,3.2,���쓌,2.7,��
2013/08/08,13:10,2.8,4.9,5.6,5.0,-,2.8,3.2,3.2,���쓌,2.4,��
2013/08/08,13:20,2.8,4.9,5.6,5.0,-,2.8,3.2,3.2,��쓌,2.9,��
2013/08/08,13:30,2.8,4.9,5.6,5.0,-,2.8,3.2,3.2,�쓌,3.1,��
2013/08/08,13:40,2.8,4.9,5.6,5.0,-,2.8,3.2,3.2,��쓌,2.6,��
2013/08/08,13:50,2.8,4.9,5.6,5.0,-,2.8,3.2,3.2,��쓌,2.6,��
2013/08/08,14:00,2.8,4.9,5.6,5.0,-,2.8,3.2,3.2,��쓌,3.6,��
2013/08/08,14:10,2.8,4.9,5.6,5.0,-,2.8,3.2,3.2,��쓌,3.1,��
2013/08/08,14:20,2.8,4.9,5.6,5.0,-,2.8,3.2,3.2,�쓌,3.7,��
2013/08/08,14:30,2.8,4.9,5.6,5.0,-,2.8,3.2,3.2,��쓌,4.1,��
2013/08/08,14:40,2.8,4.9,5.6,5.0,-,2.8,3.2,3.2,��쓌,4.0,��
2013/08/08,14:50,2.8,4.9,5.6,5.0,-,2.8,3.3,3.2,��쓌,3.8,��
2013/08/08,15:00,2.8,4.9,5.6,5.0,-,2.8,3.3,3.2,��쓌,4.4,��
2013/08/08,15:10,2.8,4.9,5.6,5.0,-,2.8,3.3,3.2,��쓌,4.7,��
2013/08/08,15:20,2.8,4.9,5.6,5.0,-,2.8,3.2,3.2,��쓌,5.2,��
2013/08/08,15:30,2.8,4.9,5.6,5.0,-,2.8,3.3,3.2,��,4.9,��
2013/08/08,15:40,2.8,4.9,5.6,5.0,-,2.8,3.3,3.2,��,5.2,��
2013/08/08,15:50,2.8,4.9,5.6,5.0,-,2.8,3.3,3.2,��,5.2,��
2013/08/08,16:00,2.8,4.9,5.6,5.0,-,2.8,3.3,3.2,��,6.3,��
2013/08/08,16:10,2.8,4.9,5.6,5.0,-,2.8,3.2,3.2,��쓌,5.5,��
2013/08/08,16:20,2.8,4.9,5.6,5.0,-,2.8,3.3,3.2,��,6.0,��
2013/08/08,16:30,2.8,4.9,5.6,5.0,-,2.8,3.3,3.2,��,6.1,��
2013/08/08,16:40,2.8,4.9,5.6,5.0,-,2.8,3.3,3.2,��쓌,6.7,��
2013/08/08,16:50,2.8,4.9,5.6,5.0,-,2.8,3.3,3.2,��,6.2,��
2013/08/08,17:00,2.8,4.9,5.6,5.0,5.3,2.8,3.3,3.2,��쓌,7.1,��
2013/08/08,17:10,2.8,4.9,5.6,5.0,5.3,2.8,3.3,3.2,��쓌,6.3,��
2013/08/08,17:20,2.8,4.9,5.6,5.0,5.3,2.8,3.3,3.2,��,5.8,��
2013/08/08,17:30,2.8,4.9,5.6,5.0,5.3,2.8,3.3,3.2,��쓌,6.0,��
2013/08/08,17:40,2.8,4.9,5.6,5.0,5.3,2.8,3.2,3.2,��쓌,5.7,��
2013/08/08,17:50,2.8,4.9,5.6,5.0,5.3,2.8,3.3,3.2,��,5.6,��
2013/08/08,18:00,2.8,4.9,5.6,5.0,5.3,2.8,3.3,3.2,��,5.6,��
2013/08/08,18:10,2.8,4.9,5.6,5.0,5.3,2.8,3.3,3.2,��쓌,4.4,��
2013/08/08,18:20,2.8,4.9,5.6,5.0,5.3,2.8,3.3,3.2,��,5.3,��
2013/08/08,18:30,2.8,4.9,5.6,5.0,5.3,2.8,3.3,3.2,��,4.8,��
2013/08/08,18:40,2.8,4.9,5.6,5.0,5.3,2.8,3.2,3.2,��,4.8,��
2013/08/08,18:50,2.8,4.9,5.6,5.0,5.3,2.8,3.2,3.2,��쓌,6.4,��
2013/08/08,19:00,2.8,4.9,5.6,5.0,5.3,2.8,3.2,3.2,��,7.7,��
2013/08/08,19:10,2.8,4.9,5.6,5.0,5.3,2.8,3.2,3.2,��,7.1,��
2013/08/08,19:20,2.8,4.9,5.6,5.0,5.3,2.8,3.2,3.2,��,7.1,��
2013/08/08,19:30,2.8,4.9,5.6,5.0,5.3,2.8,3.2,3.2,��,7.1,��
2013/08/08,19:40,2.8,4.9,5.6,5.0,5.3,2.8,3.2,3.2,��,6.7,��
2013/08/08,19:50,2.8,4.9,5.6,5.0,5.3,2.8,3.2,3.2,��,5.5,��
2013/08/08,20:00,2.8,4.9,5.6,5.0,5.3,2.8,3.2,3.2,��,5.7,��
2013/08/08,20:10,2.8,4.9,5.6,5.0,5.3,2.8,3.2,3.2,��,6.0,��
2013/08/08,20:20,2.8,4.9,5.6,5.0,5.3,2.8,3.2,3.2,��,7.1,��
2013/08/08,20:30,2.8,4.9,5.6,5.0,5.3,2.8,3.2,3.2,��,6.3,��
2013/08/08,20:40,2.8,4.9,5.6,5.0,5.3,2.8,3.2,3.2,��,6.9,��
2013/08/08,20:50,2.8,4.9,5.6,5.0,5.3,2.8,3.2,3.2,��,6.6,��
2013/08/08,21:00,2.8,4.9,5.6,5.0,5.3,2.8,3.2,3.2,��,6.1,��
2013/08/08,21:10,2.8,4.9,5.6,5.0,5.3,2.8,3.2,3.2,��,6.5,��
2013/08/08,21:20,2.8,4.9,5.6,5.0,5.3,2.8,3.2,3.2,��,6.5,��
2013/08/08,21:30,2.8,4.9,5.6,5.0,5.3,2.8,3.2,3.2,��,6.0,��
2013/08/08,21:40,2.8,4.9,5.6,5.0,5.3,2.8,3.2,3.2,��,6.1,��
2013/08/08,21:50,2.8,4.9,5.6,5.0,5.3,2.8,3.2,3.2,��,5.7,��
2013/08/08,22:00,2.8,4.9,5.6,5.0,5.3,2.8,3.2,3.2,��,4.8,��
2013/08/08,22:10,2.8,4.9,5.6,5.0,5.3,2.8,3.2,3.2,��,4.4,��
2013/08/08,22:20,2.8,4.9,5.6,5.0,5.3,2.8,3.2,3.2,��,4.1,��
2013/08/08,22:30,2.8,4.9,5.6,5.0,5.3,2.8,3.2,3.2,��쐼,4.3,��
2013/08/08,22:40,2.8,4.9,5.6,5.0,5.3,2.8,3.2,3.2,��쐼,3.8,��
2013/08/08,22:50,2.8,4.9,5.6,5.0,5.3,2.8,3.2,3.2,��쐼,5.7,��
2013/08/08,23:00,2.8,4.9,5.6,5.0,5.3,2.8,3.2,3.2,��쐼,5.7,��
2013/08/08,23:10,2.8,4.9,5.6,5.0,5.3,2.8,3.2,3.2,��쐼,6.1,��
2013/08/08,23:20,2.8,4.9,5.6,5.0,5.3,2.8,3.2,3.2,��쐼,5.2,��
2013/08/08,23:30,2.8,4.9,5.6,5.0,5.3,2.8,3.2,3.2,��쐼,5.4,��
2013/08/08,23:40,2.8,4.9,5.6,5.0,5.3,2.8,3.2,3.2,��쐼,4.8,��
2013/08/08,23:50,2.8,4.9,5.6,5.0,5.3,2.8,3.2,3.2,��쐼,4.1,��
